Regional Weather Roundup
Issued by NWS

Home | Current Version | Previous Version | Text Only | Print | Product List | Glossary Off
Versions: 1 2 3 4 5 6 7 8 9 10 11 12 13 14 15 16 17 18 19 20 21 22 23 24 25 26 27 28 29 30 31 32 33 34 35 36 37 38 39 40 41 42 43 44 45 46 47 48 49 50

374
ASUS44 KJAN 011503
RWRMS

MISSISSIPPI HOURLY WEATHER ROUNDUP
NATIONAL WEATHER SERVICE JACKSON MS
900 AM CST SUN FEB 01 2015

NOTE: "FAIR: INDICATES FEW OR NO CLOUDS BELOW 12,000 FEET WITH NO
SIGNIFICANT WEATHER AND/OR OBSTRUCTIONS TO VISIBILITY.

MSZ001>002-007>008-010>013-018>021-025>028-034>036-011600-
NORTHWEST MISSISSIPPI

CITY           SKY/WX    TMP DP  RH WIND       PRES   REMARKS
CLARKSDALE     PTSUNNY   54  54 100 S21       29.87F
CLEVELAND      DRIZZLE   53  53  99 S15       29.89F
GREENWOOD      LGT RAIN  56  52  86 S20G29    29.93F
GREENVILLE     CLOUDY    56  52  86 S16       29.89F
GRENADA        CLOUDY    54  50  87 S8G17     29.93F
OXFORD         CLOUDY    48  48 100 S13G18    29.94S
TUNICA         CLOUDY    54  50  87 S18G25    29.86F
$$

MSZ003>006-009-014>017-022>024-029>033-037>039-011600-
NORTHEAST MISSISSIPPI

CITY           SKY/WX    TMP DP  RH WIND       PRES   REMARKS
COLUMBUS AFB   DRIZZLE   46  45  94 SE10      30.01F
CORINTH        LGT RAIN  46  43  87 S15G23    29.92F
GOLDN TRIANGLE CLOUDY    45  41  87 S12G18    30.00F FOG
STARKVILLE     LGT RAIN  45  43  93 S8        30.01F
TUPELO         CLOUDY    48  45  89 SW14      29.97F
$$

MSZ040-058-011600-
CENTRAL MISSISSIPPI

CITY           SKY/WX    TMP DP  RH WIND       PRES   REMARKS
JACKSON INTL   CLOUDY    54  52  93 S15       29.98F
JACKSON HAWKNS CLOUDY    56  53  90 S10       29.97F
MERIDIAN KEY   LGT RAIN  52  50  93 S9        30.04S
MERIDIAN NAS   LGT RAIN  45  43  93 SE6       30.05S
RAYMOND        FAIR      55  50  82 S12       29.97F
VICKSBURG      CLOUDY    57  53  86 S12       29.96S
$$

MSZ059>079-011600-
SOUTH MISSISSIPPI

CITY           SKY/WX    TMP DP  RH WIND       PRES   REMARKS
BROOKHAVEN     CLOUDY    59  57  94 SE13G20   30.00F
HATTIESBURG    CLOUDY    57  55  93 S5        30.05S
MCCOMB         CLOUDY    60  56  86 S12       30.00F
NATCHEZ        CLOUDY    59  55  88 S13       29.97F
PINE BELT      CLOUDY    54  48  82 SE3       30.04S
$$

MSZ080>082-011600-
COASTAL MISSISSIPPI

CITY           SKY/WX    TMP DP  RH WIND       PRES   REMARKS
BAY ST LOUIS   LGT RAIN  61  55  82 SE5       30.03F
BILOXI         PTSUNNY   64  60  86 SE9       30.03S
PASCAGOULA     CLOUDY    63  58  83 SE8       30.04F
GULFPORT       CLOUDY    62  58  86 SE7       30.03S
$$



USA.gov is the U.S. government's official web portal to all federal, state and local government web resources and services.